Hourly Weather Rujsca

Today, 22 April, Thursday

Time Temperature Precipitation Wind Pressure Humidity
00:00 +5°C° 0 mm 5 mps 749 mmHg 73%
01:00 +3°C° 0 mm 5 mps 749 mmHg 68%
02:00 +2°C° 0 mm 5 mps 749 mmHg 70%
03:00 +1°C° 0 mm 5 mps 749 mmHg 72%
04:00 0°C° 0 mm 5 mps 749 mmHg 75%
05:00 -1°C° 0 mm 6 mps 750 mmHg 74%
06:00 0°C° 0 mm 7 mps 750 mmHg 72%
07:00 0°C° 0 mm 8 mps 750 mmHg 71%
08:00 +1°C° 0 mm 8 mps 751 mmHg 68%
09:00 +2°C° 0 mm 8 mps 751 mmHg 64%
10:00 +4°C° 0 mm 8 mps 751 mmHg 60%
11:00 +5°C° 0.1 mm 8 mps 751 mmHg 57%
12:00 +6°C° 0.1 mm 8 mps 751 mmHg 54%
13:00 +7°C° 0.1 mm 8 mps 751 mmHg 51%
14:00 +8°C° 0.3 mm 7 mps 751 mmHg 52%
15:00 +6°C° 0.3 mm 7 mps 751 mmHg 53%
16:00 +7°C° 0.3 mm 6 mps 751 mmHg 55%
17:00 +5°C° 0.1 mm 6 mps 751 mmHg 56%
18:00 +5°C° 0.1 mm 5 mps 752 mmHg 57%
19:00 +4°C° 0.1 mm 4 mps 752 mmHg 59%
20:00 +3°C° 0 mm 4 mps 752 mmHg 62%
21:00 +1°C° 0 mm 4 mps 753 mmHg 65%
22:00 0°C° 0 mm 4 mps 753 mmHg 68%
23:00 0°C° 0 mm 4 mps 753 mmHg 70%

Tomorrow, 23 April, Friday

Time Temperature Precipitation Wind Pressure Humidity
00:00 0°C° 0 mm 4 mps 753 mmHg 73%
01:00 -1°C° 0 mm 4 mps 753 mmHg 75%
02:00 -1°C° 0 mm 4 mps 753 mmHg 78%
03:00 -1°C° 0 mm 4 mps 753 mmHg 80%
04:00 -2°C° 0 mm 4 mps 754 mmHg 83%
05:00 -1°C° 0 mm 4 mps 754 mmHg 83%
06:00 0°C° 0 mm 5 mps 754 mmHg 83%
07:00 +1°C° 0 mm 6 mps 754 mmHg 83%
08:00 +2°C° 0 mm 6 mps 754 mmHg 79%
09:00 +3°C° 0 mm 7 mps 754 mmHg 75%
10:00 +4°C° 0 mm 8 mps 754 mmHg 71%
11:00 +4°C° 0.1 mm 7 mps 754 mmHg 68%
12:00 +5°C° 0.1 mm 7 mps 754 mmHg 64%
13:00 +5°C° 0.1 mm 7 mps 754 mmHg 61%
14:00 +6°C° 0.1 mm 7 mps 755 mmHg 54%
15:00 +6°C° 0.1 mm 7 mps 755 mmHg 46%
16:00 +8°C° 0.1 mm 7 mps 755 mmHg 39%
17:00 +5°C° 0 mm 6 mps 756 mmHg 44%
18:00 +5°C° 0 mm 4 mps 756 mmHg 48%
19:00 +3°C° 0 mm 3 mps 756 mmHg 53%
20:00 +3°C° 0 mm 3 mps 757 mmHg 54%
21:00 +2°C° 0 mm 3 mps 757 mmHg 55%
22:00 +2°C° 0 mm 3 mps 757 mmHg 56%
23:00 +1°C° 0 mm 3 mps 757 mmHg 61%

Day after tomorrow, 24 April, Saturday

Time Temperature Precipitation Wind Pressure Humidity
00:00 +1°C° 0 mm 3 mps 757 mmHg 66%
01:00 0°C° 0 mm 3 mps 757 mmHg 71%
02:00 0°C° 0 mm 3 mps 757 mmHg 74%
03:00 -1°C° 0 mm 3 mps 757 mmHg 77%
04:00 -1°C° 0 mm 3 mps 757 mmHg 81%
05:00 0°C° 0 mm 3 mps 757 mmHg 75%
06:00 +1°C° 0 mm 3 mps 757 mmHg 70%
07:00 +3°C° 0 mm 3 mps 757 mmHg 65%
08:00 +4°C° 0 mm 3 mps 757 mmHg 57%
09:00 +6°C° 0 mm 4 mps 757 mmHg 49%
10:00 +7°C° 0 mm 4 mps 757 mmHg 41%
11:00 +8°C° 0.1 mm 4 mps 756 mmHg 46%
12:00 +8°C° 0.1 mm 5 mps 756 mmHg 50%
13:00 +8°C° 0.1 mm 5 mps 756 mmHg 54%
14:00 +8°C° 0.3 mm 5 mps 756 mmHg 57%
15:00 +8°C° 0.3 mm 6 mps 756 mmHg 60%
16:00 +8°C° 0.3 mm 6 mps 755 mmHg 63%
17:00 +7°C° 0.1 mm 5 mps 756 mmHg 65%
18:00 +6°C° 0.1 mm 4 mps 756 mmHg 66%
19:00 +5°C° 0.1 mm 4 mps 756 mmHg 68%
20:00 +4°C° 0 mm 3 mps 757 mmHg 69%
21:00 +2°C° 0 mm 3 mps 757 mmHg 71%
22:00 +1°C° 0 mm 3 mps 757 mmHg 72%
23:00 +1°C° 0 mm 2 mps 758 mmHg 73%

25 April, Sunday

Time Temperature Precipitation Wind Pressure Humidity
00:00 +1°C° 0 mm 2 mps 758 mmHg 74%
01:00 -1°C° 0 mm 2 mps 758 mmHg 75%
02:00 -1°C° 0 mm 2 mps 758 mmHg 77%
03:00 -2°C° 0 mm 2 mps 758 mmHg 79%
04:00 -2°C° 0 mm 2 mps 758 mmHg 81%
05:00 -1°C° 0 mm 3 mps 758 mmHg 76%
06:00 +1°C° 0 mm 3 mps 758 mmHg 70%
07:00 +2°C° 0 mm 3 mps 759 mmHg 65%
08:00 +4°C° 0 mm 4 mps 759 mmHg 57%
09:00 +5°C° 0 mm 4 mps 758 mmHg 49%
10:00 +7°C° 0 mm 4 mps 758 mmHg 41%
11:00 +8°C° 0 mm 4 mps 758 mmHg 39%
12:00 +9°C° 0 mm 5 mps 758 mmHg 37%
13:00 +9°C° 0 mm 5 mps 757 mmHg 35%
14:00 +9°C° 0 mm 5 mps 757 mmHg 36%
15:00 +9°C° 0 mm 5 mps 757 mmHg 37%
16:00 +10°C° 0 mm 5 mps 756 mmHg 38%
17:00 +8°C° 0 mm 4 mps 756 mmHg 44%
18:00 +7°C° 0 mm 3 mps 756 mmHg 51%
19:00 +6°C° 0 mm 2 mps 756 mmHg 58%
20:00 +5°C° 0 mm 2 mps 756 mmHg 59%
21:00 +4°C° 0 mm 2 mps 755 mmHg 60%
22:00 +3°C° 0 mm 2 mps 755 mmHg 61%
23:00 +3°C° 0 mm 2 mps 755 mmHg 62%

26 April, Monday

Time Temperature Precipitation Wind Pressure Humidity
00:00 +2°C° 0 mm 2 mps 754 mmHg 63%
01:00 +1°C° 0 mm 3 mps 754 mmHg 64%
02:00 +1°C° 0 mm 3 mps 753 mmHg 66%
03:00 +1°C° 0 mm 3 mps 753 mmHg 67%
04:00 0°C° 0 mm 3 mps 753 mmHg 69%
05:00 +2°C° 0 mm 2 mps 752 mmHg 67%
06:00 +4°C° 0 mm 2 mps 752 mmHg 64%
07:00 +5°C° 0 mm 2 mps 752 mmHg 61%
08:00 +6°C° 0 mm 2 mps 752 mmHg 57%
09:00 +8°C° 0 mm 3 mps 752 mmHg 53%
10:00 +10°C° 0 mm 3 mps 752 mmHg 49%
11:00 +10°C° 0 mm 3 mps 752 mmHg 46%
12:00 +11°C° 0 mm 3 mps 752 mmHg 44%
13:00 +11°C° 0 mm 3 mps 751 mmHg 41%
14:00 +11°C° 0 mm 3 mps 751 mmHg 40%
15:00 +11°C° 0 mm 3 mps 751 mmHg 40%
16:00 +11°C° 0 mm 3 mps 751 mmHg 40%
17:00 +10°C° 0 mm 3 mps 751 mmHg 45%
18:00 +8°C° 0 mm 2 mps 751 mmHg 50%
19:00 +7°C° 0 mm 2 mps 751 mmHg 55%
20:00 +5°C° 0 mm 3 mps 751 mmHg 57%
21:00 +4°C° 0 mm 3 mps 751 mmHg 60%
22:00 +3°C° 0 mm 3 mps 751 mmHg 62%
23:00 +2°C° 0 mm 3 mps 750 mmHg 64%

27 April, Tuesday

Time Temperature Precipitation Wind Pressure Humidity
00:00 +2°C° 0 mm 3 mps 750 mmHg 66%
01:00 0°C° 0 mm 4 mps 750 mmHg 68%
02:00 0°C° 0 mm 4 mps 750 mmHg 68%
03:00 0°C° 0 mm 4 mps 749 mmHg 69%
04:00 -1°C° 0 mm 4 mps 749 mmHg 69%
05:00 0°C° 0 mm 5 mps 748 mmHg 68%
06:00 +2°C° 0 mm 5 mps 748 mmHg 67%
07:00 +3°C° 0 mm 6 mps 748 mmHg 66%
08:00 +4°C° 0 mm 6 mps 747 mmHg 61%
09:00 +6°C° 0 mm 7 mps 747 mmHg 56%
10:00 +7°C° 0 mm 8 mps 746 mmHg 51%
11:00 +9°C° 0 mm 8 mps 745 mmHg 51%
12:00 +10°C° 0 mm 8 mps 744 mmHg 52%
13:00 +10°C° 0 mm 8 mps 743 mmHg 53%
14:00 +10°C° 0.1 mm 7 mps 743 mmHg 58%
15:00 +10°C° 0.1 mm 6 mps 742 mmHg 64%
16:00 +10°C° 0.1 mm 5 mps 742 mmHg 69%
17:00 +10°C° 0.3 mm 5 mps 741 mmHg 76%
18:00 +9°C° 0.3 mm 5 mps 741 mmHg 84%
19:00 +10°C° 0.3 mm 4 mps 740 mmHg 91%
20:00 +8°C° 0.3 mm 4 mps 740 mmHg 92%
21:00 +8°C° 0.3 mm 4 mps 740 mmHg 93%
22:00 +8°C° 0.3 mm 4 mps 740 mmHg 95%
23:00 +8°C° 0.3 mm 3 mps 740 mmHg 96%
Show more